Location: Christchurch
(43.5330°S, 172.6330°E)
Time: 15:04:48
(UTC+13:00)

Cosmos 2237 Rocket - Pass Details

Date: 24 January 2019
Orbit: 833 x 851 km, 71.0° (Epoch: 16 February)

Event Time Altitude Azimuth Distance (km) Brightness Sun altitude
Exits shadow 23:50:55 27° 87° (E) 1,596 3.3 -22.3°
Drops below altitude 10° 23:55:06 10° 133° (SE) 2,489 4.8 -22.7°
Sets 23:57:53 0° 144° (SE) 3,428 5.7 -22.9°
